sat.trackr.live / text

‹ back to catalog

JB-3 3 (ZY 2C)

NORAD 28470 · 2004-044A

PAYLOAD ACTIVE UNKNOWN

§ Identity

Operator
Country
PRC
Launch date
2004-11-06
Launch site
TAISC
Launch vehicle
Mass (kg)
RCS (m²)
4.42

External: N2YO · Heavens-Above · Gunter

§ Orbital elements

Epoch: 2026-09-09T22:36:33.107040Z

Period
94.75 min
Inclination
97.2876°
Eccentricity
0.0031313
Mean motion
15.19846522 rev/d
Perigee alt
484.7 km
Apogee alt
527.9 km
Semi-major
6,884.4 km
B*
1.3516e-4
RAAN
43.5316°
Arg perigee
284.5392°
Mean anomaly
75.2371°
Rev number
20,065

§ Raw data

JB-3 3 (ZY 2C)1 28470U 04044A   26252.94204985  .00002866  00000+0  13516-3 0  99912 28470  97.2876  43.5316 0031313 284.5392  75.2371 15.19846522200659

JSON: /api/v1/satellites/28470 · /tle

For live sub-satellite position, see the globe view (requires WebGL).

§ Visibility from observer

Set your observer location to see the next 7 days of passes ≥ 10°. The values pass through the URL so the page stays shareable.

No JS? Fill the form by hand. The geolocation button needs JavaScript.